EHI
0 0 0 0 0 0 0 0 1 1 2 2 2 1 1 2 1 2 3 4 3 4 6 6 5 7 15 26 33 36 37 36 34 26 15 9 6 5 3 1 0 1 1 1 0 0 0 0 0
0 0 0 0 0 0 1 1 2 2 2 2 2 2 1 1 2 4 5 4 3 4 6 8 9 9 14 24 32 36 35 33 29 22 14 8 6 5 4 2 1 2 2 2 1 0 0 0 0
0 0 0 0 0 1 2 2 2 2 1 1 1 2 3 3 3 6 7 5 3 3 5 10 13 12 13 20 27 31 30 27 22 16 11 8 7 6 5 3 3 3 3 2 1 0 0 0 0
0 0 0 0 1 2 3 3 1 1 0 0 1 4 9 8 7 7 7 5 4 3 4 9 14 14 15 17 21 25 27 25 21 15 11 9 7 6 5 4 3 3 2 1 0 0 0 0 0
0 0 0 0 1 3 4 2 1 0 0 0 2 7 16 20 17 12 7 5 4 2 3 8 13 15 16 16 19 24 29 28 25 21 14 10 9 7 5 3 2 2 1 0 0 0 0 0 0
0 0 0 0 1 3 3 1 0 0 0 1 3 10 23 32 29 16 7 5 3 2 3 6 10 13 16 18 21 27 32 31 26 21 17 13 12 9 5 3 1 1 0 0 0 0 0 0 0
0 0 0 0 1 3 3 3 2 2 3 4 5 12 28 40 35 19 10 6 4 2 4 5 7 10 13 18 24 28 30 28 22 17 16 15 13 9 6 3 3 2 1 0 0 0 0 0 0
0 0 0 0 1 2 4 4 4 5 7 9 9 15 33 47 39 25 17 11 6 4 5 5 4 4 7 12 19 22 22 21 18 14 13 11 9 6 4 5 6 5 2 2 1 1 0 0 0
0 0 0 0 0 1 1 2 4 8 10 12 15 26 46 54 43 32 27 19 11 7 6 4 2 1 2 5 10 12 12 13 12 9 7 6 4 3 3 6 9 7 4 3 2 1 0 0 0
0 0 0 0 0 0 0 1 3 7 9 11 21 41 58 57 43 34 29 23 16 11 8 5 3 2 3 5 7 7 7 8 7 6 6 5 4 3 5 8 9 8 5 3 3 2 0 0 0
0 0 0 1 1 1 1 2 4 7 8 11 24 46 59 53 40 30 27 23 19 16 11 6 6 6 7 10 11 8 7 8 9 12 13 10 8 7 8 10 11 10 8 6 5 3 2 1 1
0 1 1 2 3 3 5 7 10 12 12 15 27 43 50 46 36 29 25 22 19 17 13 9 11 12 14 16 17 13 12 14 16 19 19 15 13 11 10 10 11 12 12 12 10 8 6 4 3
1 2 3 3 4 5 8 12 15 16 16 21 32 39 39 36 32 28 25 22 18 14 13 13 15 18 19 21 21 19 19 21 21 22 21 18 16 13 11 11 12 12 14 15 13 12 10 7 5
1 2 3 3 4 5 7 12 16 15 16 22 32 35 31 28 29 28 25 20 15 12 13 15 16 17 18 20 21 22 22 22 21 20 19 17 14 13 12 13 14 13 14 15 14 13 11 9 6
0 1 2 1 2 2 4 9 13 13 14 20 26 29 29 30 31 28 23 18 15 14 16 16 14 13 15 18 21 21 19 17 16 14 13 11 10 11 13 15 16 15 14 15 14 12 11 10 8
0 0 0 0 0 0 2 7 10 11 14 19 22 25 30 33 31 26 21 18 17 17 20 19 15 14 17 19 19 18 15 12 9 8 8 7 8 9 12 14 15 15 14 14 13 10 9 9 9
0 0 0 0 0 0 1 5 9 11 14 19 21 23 28 29 25 22 21 20 19 19 21 21 19 19 19 18 16 14 12 9 7 6 6 6 7 8 10 12 14 14 14 14 12 9 8 8 8
0 0 0 0 0 0 0 3 7 10 13 17 20 21 24 24 21 19 20 20 20 20 20 20 20 20 18 16 13 11 8 6 4 4 4 5 5 6 8 11 12 13 13 14 11 9 8 7 7
0 0 0 0 0 0 0 1 5 9 11 13 17 20 22 23 21 18 18 19 20 20 19 18 17 16 16 15 13 10 7 4 3 2 2 3 3 3 6 9 11 11 11 10 9 8 7 8 8
0 0 0 1 1 1 0 1 3 7 9 11 16 21 22 21 20 19 17 17 18 19 18 16 15 14 14 13 11 8 5 4 2 1 1 1 1 1 3 6 8 8 8 8 7 7 8 8 7
0 0 0 1 1 1 0 0 2 5 8 11 15 20 21 20 18 19 17 16 18 18 17 15 14 13 12 10 8 7 6 5 3 2 1 0 0 0 0 1 3 4 5 5 5 5 6 6 6
0 0 0 0 0 0 0 0 1 4 6 9 14 19 22 20 18 18 18 17 16 16 15 14 12 11 10 9 7 7 8 6 5 4 2 1 0 0 0 0 0 1 2 2 2 2 2 2 3
0 0 0 0 0 0 0 0 1 2 4 7 13 20 24 23 20 17 17 16 16 16 15 13 11 10 9 7 7 7 8 7 6 4 3 1 0 0 0 0 0 0 0 0 0 0 0 0 1
0 0 0 0 0 0 0 0 0 1 3 7 12 18 23 23 20 17 17 17 18 17 14 12 11 9 7 6 5 5 6 6 4 3 2 1 0 0 0 0 0 0 0 0 0 0 0 0 0
0 0 0 0 0 0 0 0 1 2 3 6 11 16 19 19 17 17 18 19 19 16 12 10 9 8 6 5 4 3 4 4 2 1 1 0 0 0 0 0 0 0 0 0 0 0 0 0 0
0 0 0 0 0 0 0 0 1 2 2 5 10 12 12 13 14 16 18 19 18 15 11 7 7 7 6 5 5 4 4 4 2 1 0 0 0 1 1 1 0 0 0 0 0 0 0 0 0
0 0 0 0 0 0 0 0 0 1 1 4 9 11 10 11 14 15 16 16 16 15 11 7 7 7 6 6 7 6 5 4 3 2 1 1 1 2 2 1 0 0 0 0 0 0 0 0 0
0 0 0 0 0 0 0 0 1 2 5 7 9 10 10 12 15 14 12 12 14 14 12 9 8 8 8 7 7 7 6 4 3 2 1 2 2 2 1 0 0 0 0 0 0 0 0 0 0
0 0 0 0 0 0 0 0 2 6 10 11 9 8 8 10 12 10 8 8 11 12 11 9 8 10 10 9 8 7 6 4 3 3 2 2 2 1 0 0 0 0 0 0 0 0 0 0 0
0 0 0 0 0 0 0 0 3 9 12 12 9 6 6 7 8 7 6 6 9 10 9 8 8 10 11 10 9 7 5 4 4 3 3 2 1 0 0 0 0 0 0 0 0 0 0 0 0
Wind_Speed
9 7 7 6 8 8 6 4 3 6 5 4 6 3 2 4 4 7 8 12 13 14 15 15 12 12 12 12 12 13 13 13 13 12 12 11 10 9 8 8 7 6 6 6 6 5 5 5 4
6 6 7 7 9 9 7 5 5 5 7 8 7 5 4 6 7 9 10 12 14 14 14 14 14 12 13 12 12 12 13 13 12 11 11 10 9 8 8 7 6 6 5 5 5 5 4 4 4
6 7 8 7 9 8 6 6 5 8 8 7 6 4 5 6 7 8 10 14 14 13 12 14 14 13 13 13 13 12 12 12 11 11 10 9 8 7 7 6 6 5 5 4 4 4 3 3 3
7 8 7 9 10 4 1 5 7 10 8 6 7 7 7 5 5 10 14 15 14 13 12 15 13 13 13 12 12 12 12 11 10 10 9 8 7 6 6 5 5 4 4 4 3 3 3 2 2
7 7 10 10 8 5 3 4 7 8 7 6 6 8 8 5 9 14 14 14 13 13 12 15 12 12 12 12 11 11 11 10 9 8 8 6 6 5 4 4 4 3 3 3 3 3 2 2 2
7 7 10 10 9 6 5 5 8 8 8 7 7 8 7 7 11 13 13 12 12 12 12 14 12 11 11 11 10 10 9 9 8 7 7 6 5 4 3 3 2 2 2 2 3 2 3 2 3
9 8 10 9 8 8 5 5 8 8 8 7 7 8 8 9 10 12 12 11 11 11 11 12 12 12 11 9 9 8 8 8 7 6 6 5 4 3 2 2 1 1 2 2 2 3 3 3 3
7 7 9 8 9 8 7 6 5 7 7 6 5 7 9 12 11 11 11 10 10 9 9 9 10 10 10 10 9 8 8 7 7 5 4 4 4 4 3 3 2 1 1 2 2 3 3 3 4
7 9 9 8 8 7 8 8 6 4 8 6 3 4 12 16 14 13 11 10 9 8 7 7 8 8 8 8 9 8 8 6 6 6 5 5 4 4 5 2 2 1 1 2 3 3 4 5 6
8 9 5 2 2 5 7 7 8 9 10 9 9 11 16 15 14 13 12 11 10 8 7 6 6 7 6 5 6 5 5 5 4 2 3 3 1 1 2 5 2 2 3 4 4 4 6 8 5
7 5 3 3 2 3 6 6 6 9 8 9 11 15 16 15 12 11 10 9 9 8 6 5 5 4 4 4 3 2 2 2 2 1 1 1 2 1 2 1 3 3 4 4 3 5 4 3 3
5 2 1 2 3 4 5 6 5 4 3 6 11 15 15 13 11 10 9 9 8 7 6 5 5 4 3 3 3 2 1 1 1 1 1 1 1 2 2 2 2 2 2 2 3 2 3 3 3
6 4 3 3 4 4 5 6 5 4 5 9 14 14 14 12 11 9 8 8 7 7 6 5 4 4 3 2 1 2 1 1 1 1 1 2 2 2 2 2 2 3 2 3 3 3 3 3 3
4 5 5 5 5 5 7 6 5 5 8 12 14 13 12 12 11 10 9 8 7 6 5 5 4 4 4 3 2 1 1 1 1 2 3 2 2 2 2 2 3 3 3 3 3 3 3 3 2
6 7 7 5 6 6 7 5 5 8 10 12 12 12 11 10 10 9 9 8 7 6 5 4 4 4 4 3 2 2 2 1 1 2 2 2 2 2 3 3 3 3 3 3 3 3 3 3 3
9 9 8 7 7 7 9 7 8 8 10 11 11 10 10 9 8 7 7 7 6 6 6 4 4 4 4 3 3 2 2 2 2 2 2 2 3 3 3 3 3 3 3 3 3 3 3 3 3
10 9 8 9 7 7 8 6 8 9 10 10 10 10 9 9 8 7 6 6 6 6 6 5 4 4 4 4 3 3 3 3 2 2 2 2 3 3 3 3 3 4 3 2 3 2 3 3 3
8 8 8 8 8 9 8 6 8 9 10 10 10 10 9 9 8 8 7 6 6 5 6 5 5 4 4 3 2 3 3 2 2 2 3 3 3 4 4 3 3 4 3 3 3 3 3 3 3
4 6 7 6 6 8 8 7 8 9 10 10 10 9 8 8 7 8 7 7 6 6 6 5 5 4 3 2 1 2 2 2 2 3 4 4 4 4 4 4 3 4 3 3 4 4 4 3 2
7 8 8 6 5 5 7 6 7 9 10 9 9 9 8 8 8 8 8 7 7 6 6 6 5 4 3 2 1 1 1 1 2 2 3 4 4 4 3 4 4 3 3 2 3 3 4 3 2
9 8 7 6 6 5 6 8 9 9 9 9 8 8 9 9 9 9 8 8 7 6 5 4 4 4 3 3 2 2 2 1 2 2 2 3 4 4 4 4 4 4 3 3 3 3 4 3 3
8 5 5 7 9 6 8 7 9 10 11 11 10 9 9 9 9 9 9 8 7 7 6 5 5 4 4 3 2 2 1 1 2 1 2 2 3 4 4 4 4 5 4 3 3 3 3 3 3
4 3 6 8 8 6 8 9 4 8 10 11 11 11 9 9 10 9 9 9 8 7 6 6 6 5 4 3 2 1 2 1 2 2 2 1 2 2 4 4 4 4 4 4 4 3 4 3 3
5 6 6 8 9 10 7 9 6 6 8 8 9 10 10 9 9 9 9 9 8 7 7 6 6 5 4 3 2 2 3 2 2 1 1 1 1 2 4 4 4 4 4 4 3 3 3 3 3
9 8 7 8 9 7 5 8 3 3 3 4 6 8 9 9 9 9 10 10 9 8 7 6 6 5 4 4 3 3 2 2 2 1 1 2 2 2 4 4 4 4 4 4 4 3 3 3 3
9 10 8 7 7 5 6 7 1 3 2 2 3 6 8 9 9 10 10 9 9 8 7 6 6 5 5 4 4 3 2 1 2 2 2 2 2 3 4 4 4 4 4 4 4 3 3 3 3
9 9 7 8 8 8 5 4 3 4 4 4 4 6 8 8 9 10 10 10 9 9 7 6 6 5 5 4 4 3 2 1 2 1 1 2 2 2 3 3 4 4 4 4 4 3 4 3 3
6 5 6 8 8 9 7 7 4 6 6 5 6 6 7 8 9 10 10 10 9 8 7 6 6 5 5 4 3 2 2 2 1 1 2 3 3 3 3 3 4 3 3 4 4 3 3 3 3
7 7 8 8 7 8 7 2 4 1 3 5 5 5 7 9 10 9 9 9 9 8 7 7 6 5 5 4 3 2 2 1 1 1 2 2 3 3 4 4 4 4 4 4 4 4 4 4 3
8 8 8 8 7 8 9 2 4 1 3 5 6 6 6 8 9 9 9 9 8 8 7 6 6 5 4 4 3 3 2 1 1 1 2 2 2 3 3 4 4 4 4 4 4 4 4 4 3
Wind_Direction
231 222 224 232 234 228 212 161 163 142 129 117 127 123 86 49 21 73 113 138 135 136 137 147 145 143 138 133 131 129 129 129 130 132 133 133 134 134 134 133 131 130 127 125 123 121 121 122 126
228 212 224 233 242 215 189 167 165 125 116 125 120 116 103 77 62 102 131 134 139 137 143 145 142 145 142 138 135 134 134 133 134 135 136 136 136 136 137 135 134 133 132 129 126 125 127 130 136
216 227 237 230 234 231 170 149 136 118 134 144 127 93 68 79 104 121 131 139 137 136 141 135 146 147 146 143 140 139 138 137 138 138 138 138 138 139 139 140 140 140 141 140 139 139 140 145 154
210 211 228 237 218 215 150 134 139 144 141 145 137 111 86 62 104 123 136 140 138 141 143 137 150 148 148 146 143 141 140 139 139 140 140 140 141 142 143 144 146 148 151 153 155 155 157 168 181
230 225 217 220 210 174 162 146 167 164 148 147 147 118 96 74 106 126 139 143 144 142 140 139 148 149 148 147 145 142 140 138 136 135 134 134 135 138 143 150 154 161 168 173 179 182 186 203 224
213 224 220 207 187 169 157 167 180 166 153 152 152 126 99 115 127 136 140 144 142 141 140 136 144 147 146 144 141 139 135 133 132 131 132 134 135 135 137 147 161 177 193 196 203 212 214 227 241
231 223 226 208 182 172 156 174 186 171 161 158 153 129 123 139 136 139 140 143 142 142 141 143 150 150 145 138 136 133 130 129 129 128 128 130 135 139 143 150 159 194 220 225 226 229 239 245 249
254 235 215 206 193 168 148 168 172 174 146 128 158 149 147 147 144 138 136 138 139 141 140 142 148 149 152 146 137 133 131 132 132 131 136 150 168 173 174 195 149 204 232 235 238 241 247 251 251
241 235 207 196 195 158 154 167 146 151 139 134 121 100 121 138 145 143 139 140 138 137 138 145 145 147 152 146 140 147 146 146 158 157 159 201 209 193 188 131 101 257 259 250 253 253 252 248 224
228 227 197 162 200 154 161 168 154 169 162 150 131 114 122 141 149 150 150 150 148 145 142 144 144 150 154 146 145 160 166 157 187 165 180 212 228 270 286 121 170 249 263 251 242 257 246 247 237
223 231 138 153 148 164 161 155 170 177 173 167 151 141 140 147 151 154 153 151 148 144 143 139 137 142 148 143 149 153 161 152 174 164 212 253 264 253 268 240 195 222 237 254 222 237 260 269 287
204 181 192 156 153 182 167 155 153 172 126 125 136 143 145 150 155 157 154 149 142 141 143 143 143 146 144 135 140 159 157 141 138 116 310 292 297 308 313 291 297 280 280 294 289 287 289 292 292
193 157 149 151 165 160 157 153 135 122 114 126 133 144 149 154 157 154 151 146 143 144 145 144 144 137 137 138 160 130 106 100 106 47 32 336 331 329 319 314 310 302 308 292 286 287 291 283 279
157 150 150 153 145 155 159 146 149 137 141 139 143 149 154 158 157 156 155 151 148 146 144 138 141 137 137 137 126 97 93 90 62 53 37 3 349 349 322 311 310 310 315 318 306 296 285 274 276
167 163 157 164 164 161 166 160 155 141 151 147 149 151 155 157 159 160 157 154 153 148 144 141 141 133 134 132 122 109 97 93 75 68 50 17 360 352 327 320 312 324 314 301 289 293 282 273 268
191 193 174 159 176 178 206 175 146 155 158 153 152 153 154 153 156 155 154 154 154 150 144 143 145 138 132 123 112 98 75 69 55 45 46 30 9 347 321 319 324 321 304 301 298 292 293 288 286
195 197 172 154 179 184 211 163 146 165 167 161 161 161 159 157 159 153 148 148 148 148 144 136 130 130 125 123 116 97 82 60 49 41 26 17 0 341 319 319 332 306 309 312 306 319 299 291 286
189 184 176 170 169 193 198 161 152 175 180 176 174 169 170 168 161 150 144 141 137 137 133 129 128 123 130 126 118 103 90 74 54 49 36 12 2 349 326 318 331 312 314 321 328 313 292 291 294
193 194 177 155 161 198 192 178 171 182 193 188 184 180 179 170 153 145 145 142 141 140 137 133 129 130 138 134 137 113 93 76 68 55 38 14 2 354 335 328 331 316 328 330 325 317 300 294 296
204 196 172 149 162 212 188 192 186 193 205 202 194 189 182 172 163 156 155 153 152 147 145 140 136 127 128 117 101 83 94 88 77 59 47 15 6 350 343 342 327 336 321 330 335 327 311 307 293
211 210 190 170 162 198 197 203 203 198 209 209 205 198 188 183 176 167 163 160 154 147 141 134 130 126 122 117 116 117 129 133 105 70 55 21 7 6 1 352 341 334 323 342 329 325 312 306 292
209 209 206 193 204 200 219 236 201 200 205 208 205 201 193 186 179 174 168 162 154 145 140 139 131 126 122 126 117 131 133 102 70 51 47 32 21 18 18 6 357 342 341 342 325 350 316 301 299
229 199 212 217 236 239 224 256 209 194 213 209 200 198 192 184 178 173 167 158 152 147 143 136 127 120 116 111 113 133 105 89 94 89 69 7 43 27 20 9 3 353 350 353 341 330 319 308 298
186 187 203 222 233 239 229 250 234 198 218 210 197 195 185 177 172 168 161 154 150 147 144 139 133 124 120 115 109 102 96 85 79 64 60 353 32 25 21 10 3 355 358 353 343 329 322 316 305
208 214 216 219 226 236 209 243 256 172 198 210 201 186 180 175 170 165 162 159 153 151 149 145 139 131 132 125 112 102 102 120 106 53 47 359 4 11 15 0 354 355 353 341 337 330 325 313 298
215 238 255 261 254 239 205 242 178 139 169 189 188 173 171 172 171 165 162 161 156 154 153 150 143 138 139 135 129 129 147 156 97 63 13 11 358 12 1 346 348 348 344 339 335 328 333 323 303
223 235 272 274 270 265 236 225 194 172 184 178 162 164 167 168 162 159 160 161 157 156 156 151 148 144 140 142 145 144 139 93 76 75 16 16 359 355 354 345 347 343 345 345 334 346 335 325 312
267 249 248 257 262 264 251 246 228 189 189 176 172 169 162 157 155 155 159 159 153 151 146 145 148 149 148 154 156 138 128 109 82 37 37 13 358 355 343 347 348 343 344 347 338 335 350 337 334
211 220 244 262 274 276 274 278 47 155 185 177 168 158 159 161 157 157 156 153 149 147 149 151 152 155 157 153 146 135 126 112 87 56 36 9 357 350 347 348 342 346 353 351 343 343 340 335 342
245 245 242 255 258 266 281 299 79 120 158 158 152 148 156 158 157 157 155 153 154 155 157 154 156 160 155 147 141 136 133 110 78 63 29 4 358 348 352 348 344 351 3 351 345 342 342 340 341